This is the latest recevied weather packets stored in our database for station/object YD1OCG-15. If no packets are shown the sender has not sent any weather packets the latest 1 day(s).
| Time | Temp. | Humidity | Pressure | Rain* | Wind** | Luminosity | Snow |
|---|---|---|---|---|---|---|---|
| 1778065644 | 27.22° C | 86% | 1010 hPa | - | - | - | - |
| 1778063844 | 27.22° C | 88% | 1010 hPa | - | - | - | - |
| 1778062043 | 27.78° C | 83% | 1009 hPa | - | - | - | - |
| 1778060243 | 28.33° C | 87% | 1009 hPa | - | - | - | - |
| 1778056643 | 28.33° C | 80% | 1008 hPa | - | - | - | - |
| 1778045843 | 29.44° C | 79% | 1008 hPa | - | - | - | - |
| 1778044043 | 29.44° C | 81% | 1009 hPa | - | - | - | - |
| 1778040443 | 28.89° C | 87% | 1010 hPa | - | - | - | - |
| 1778038644 | 29.44° C | 75% | 1010 hPa | - | - | - | - |
| 1778036843 | 29.44° C | 89% | 1011 hPa | - | - | - | - |
| 1778035043 | 29.44° C | 82% | 1011 hPa | - | - | - | - |
| 1778033243 | 29.44° C | 92% | 1012 hPa | - | - | - | - |
| 1778031443 | 29.44° C | 83% | 1012 hPa | - | - | - | - |
| 1778027844 | 28.89° C | 85% | 1012 hPa | - | - | - | - |
| 1778024244 | 27.78° C | 89% | 1012 hPa | - | - | - | - |
| 1778020644 | 26.67° C | 92% | 1011 hPa | - | - | - | - |
| 1778015249 | 26.11° C | 92% | 1010 hPa | - | - | - | - |
| 1778009849 | 26.11° C | 92% | 1010 hPa | - | - | - | - |
| 1777997880 | 26.11° C | 92% | 1013 hPa | - | - | - | - |
| 1777994274 | 26.11° C | 91% | 1013 hPa | - | - | - | - |
| 1777988874 | 26.11° C | 92% | 1013 hPa | - | - | - | - |
| 1777985275 | 27.22° C | 90% | 1012 hPa | - | - | - | - |
* Rain since midnight (hover to see other rain measurements)
** Current wind speed in m/s (hover to see current wind gust speed)